| time (UTC) | temp C | wind direction | speed KPH | gust KPH | rain 1hr cm | rain 24hr cm | rain mn cm | humidity % | barometer mb |
| 20260507224923 | 18 | 192 | 0.0 | 6.4 | 0.00 | 0.00 | 0.00 | 49 | 1008.2 |
| 20260507223856 | 18 | 204 | 0.0 | 1.6 | 0.00 | 0.00 | 0.00 | 46 | 1008.1 |
| 20260507222822 | 19 | 84 | 0.0 | 4.8 | 0.00 | 0.00 | 0.00 | 42 | 1008.0 |
| 20260507221758 | 20 | 182 | 0.0 | 0.0 | 0.00 | 0.00 | 0.00 | 43 | 1007.9 |
| 20260507220817 | 20 | 265 | 0.0 | 0.0 | 0.00 | 0.00 | 0.00 | 46 | 1007.8 |
| 20260507215817 | 20 | 234 | 0.0 | 3.2 | 0.00 | 0.00 | 0.00 | 42 | 1007.8 |
| 20260507214822 | 20 | 219 | 0.0 | 0.0 | 0.00 | 0.00 | 0.00 | 40 | 1007.8 |
| 20260507213757 | 20 | 134 | 0.0 | 0.0 | 0.00 | 0.00 | 0.00 | 40 | 1007.7 |
| 20260507212738 | 20 | 9 | 0.0 | 0.0 | 0.00 | 0.00 | 0.00 | 41 | 1007.8 |
| 20260507211745 | 20 | 132 | 0.0 | 3.2 | 0.00 | 0.00 | 0.00 | 41 | 1007.9 |
| 20260507210759 | 20 | 48 | 0.0 | 3.2 | 0.00 | 0.00 | 0.00 | 44 | 1007.9 |
| 20260507205738 | 19 | 50 | 0.0 | 4.8 | 0.00 | 0.00 | 0.00 | 45 | 1007.9 |
| 20260507204724 | 19 | 57 | 0.0 | 4.8 | 0.00 | 0.00 | 0.00 | 44 | 1008.0 |
| 20260507203722 | 19 | 104 | 0.0 | 6.4 | 0.00 | 0.00 | 0.00 | 42 | 1008.1 |
| 20260507201551 | 19 | 306 | 1.6 | 8.0 | 0.00 | 0.00 | 0.00 | 43 | 1008.2 |
| 20260507200613 | 19 | 301 | 0.0 | 6.4 | 0.00 | 0.03 | 0.00 | 44 | 1008.3 |
| 20260507195551 | 19 | 209 | 0.0 | 0.0 | 0.00 | 0.03 | 0.00 | 48 | 1008.3 |
| 20260507194607 | 18 | 0 | 1.6 | 8.0 | 0.00 | 0.03 | 0.00 | 43 | 1008.5 |
| 20260507193612 | 18 | 289 | 1.6 | 8.0 | 0.00 | 0.03 | 0.00 | 46 | 1008.6 |
| 20260507192627 | 18 | 22 | 0.0 | 8.0 | 0.00 | 0.03 | 0.00 | 45 | 1008.9 |
| 20260507191552 | 18 | 326 | 1.6 | 9.7 | 0.00 | 0.03 | 0.00 | 51 | 1009.0 |
| 20260507190540 | 18 | 32 | 0.0 | 4.8 | 0.00 | 0.03 | 0.00 | 46 | 1009.1 |
| 20260507185527 | 18 | 324 | 1.6 | 12.9 | 0.00 | 0.03 | 0.00 | 47 | 1009.3 |
| 20260507184538 | 18 | 278 | 4.8 | 12.9 | 0.00 | 0.03 | 0.00 | 44 | 1009.3 |
| 20260507183519 | 18 | 338 | 0.0 | 9.7 | 0.00 | 0.03 | 0.00 | 50 | 1009.4 |
| 20260507182459 | 18 | 355 | 1.6 | 9.7 | 0.00 | 0.03 | 0.00 | 45 | 1009.5 |
| 20260507180244 | 17 | 298 | 1.6 | 12.9 | 0.00 | 0.03 | 0.00 | 44 | 1009.7 |
| 20260507175247 | 17 | 337 | 3.2 | 8.0 | 0.00 | 0.03 | 0.00 | 48 | 1009.9 |
| 20260507174255 | 18 | 0 | 0.0 | 3.2 | 0.00 | 0.03 | 0.00 | 54 | 1010.2 |
| 20260507173254 | 17 | 330 | 0.0 | 3.2 | 0.00 | 0.03 | 0.00 | 50 | 1010.4 |
| 20260507172308 | 17 | 24 | 1.6 | 0.0 | 0.00 | 0.03 | 0.00 | 52 | 1010.5 |
| 20260507171232 | 17 | 267 | 1.6 | 12.9 | 0.00 | 0.03 | 0.00 | 48 | 1010.6 |
| 20260507170227 | 17 | 333 | 1.6 | 14.5 | 0.00 | 0.05 | 0.00 | 51 | 1010.7 |
| 20260507165236 | 16 | 355 | 1.6 | 14.5 | 0.00 | 0.05 | 0.00 | 46 | 1010.8 |
| 20260507164242 | 16 | 323 | 0.0 | 14.5 | 0.00 | 0.05 | 0.00 | 49 | 1011.1 |
| 20260507163247 | 16 | 302 | 4.8 | 14.5 | 0.00 | 0.05 | 0.00 | 43 | 1011.1 |
| 20260507162255 | 16 | 334 | 0.0 | 9.7 | 0.00 | 0.05 | 0.00 | 45 | 1011.2 |
| 20260507161249 | 16 | 30 | 1.6 | 4.8 | 0.00 | 0.05 | 0.00 | 52 | 1011.3 |
| 20260507160309 | 16 | 313 | 1.6 | 9.7 | 0.00 | 0.05 | 0.00 | 49 | 1011.5 |
| 20260507155322 | 15 | 313 | 1.6 | 11.3 | 0.00 | 0.05 | 0.00 | 48 | 1011.6 |
| 20260507154326 | 15 | 316 | 4.8 | 11.3 | 0.00 | 0.05 | 0.00 | 51 | 1011.7 |
| 20260507153252 | 15 | 329 | 3.2 | 11.3 | 0.00 | 0.05 | 0.00 | 52 | 1011.7 |
| 20260507152305 | 15 | 338 | 3.2 | 9.7 | 0.00 | 0.05 | 0.00 | 55 | 1011.8 |
| 20260507151254 | 15 | 344 | 1.6 | 9.7 | 0.00 | 0.05 | 0.00 | 53 | 1011.8 |
| 20260507150227 | 14 | 321 | 1.6 | 9.7 | 0.00 | 0.05 | 0.00 | 58 | 1012.1 |
| 20260507145215 | 13 | 330 | 4.8 | 19.3 | 0.00 | 0.05 | 0.00 | 56 | 1012.3 |
| 20260507144211 | 13 | 315 | 6.4 | 19.3 | 0.00 | 0.05 | 0.00 | 53 | 1012.5 |
| 20260507143145 | 13 | 325 | 1.6 | 12.9 | 0.00 | 0.05 | 0.00 | 58 | 1012.5 |
| 20260507142111 | 13 | 308 | 1.6 | 11.3 | 0.00 | 0.05 | 0.00 | 59 | 1012.6 |
| 20260507141132 | 13 | 355 | 0.0 | 0.0 | 0.00 | 0.05 | 0.00 | 60 | 1012.9 |
| 20260507140124 | 12 | 338 | 1.6 | 6.4 | 0.00 | 0.10 | 0.00 | 61 | 1013.0 |
| 20260507135128 | 12 | 318 | 3.2 | 8.0 | 0.00 | 0.10 | 0.00 | 61 | 1013.1 |
| 20260507134144 | 12 | 336 | 1.6 | 8.0 | 0.00 | 0.10 | 0.00 | 59 | 1013.2 |
| 20260507133124 | 12 | 321 | 1.6 | 4.8 | 0.00 | 0.10 | 0.00 | 62 | 1013.2 |
| 20260507132124 | 12 | 319 | 3.2 | 6.4 | 0.00 | 0.13 | 0.00 | 63 | 1013.5 |
| 20260507131133 | 12 | 321 | 3.2 | 8.0 | 0.00 | 0.18 | 0.00 | 62 | 1013.3 |
| 20260507130157 | 12 | 303 | 3.2 | 8.0 | 0.00 | 0.23 | 0.00 | 65 | 1013.4 |
| 20260507125221 | 11 | 322 | 1.6 | 9.7 | 0.00 | 0.23 | 0.00 | 63 | 1013.3 |
| 20260507124232 | 11 | 331 | 1.6 | 9.7 | 0.00 | 0.25 | 0.00 | 64 | 1013.4 |
| 20260507123203 | 11 | 339 | 1.6 | 4.8 | 0.00 | 0.30 | 0.00 | 64 | 1013.2 |
| 20260507122201 | 11 | 298 | 3.2 | 8.0 | 0.00 | 0.30 | 0.00 | 63 | 1013.1 |
| 20260507121135 | 11 | 311 | 3.2 | 8.0 | 0.00 | 0.30 | 0.00 | 62 | 1013.0 |
| 20260507115027 | 11 | 320 | 0.0 | 1.6 | 0.00 | 0.38 | 0.00 | 64 | 1013.0 |
| 20260507112835 | 11 | 332 | 0.0 | 9.7 | 0.00 | 0.43 | 0.00 | 63 | 1012.7 |
| 20260507111839 | 11 | 330 | 1.6 | 9.7 | 0.00 | 0.43 | 0.00 | 61 | 1012.9 |
| 20260507110843 | 11 | 328 | 1.6 | 6.4 | 0.00 | 0.48 | 0.00 | 61 | 1012.8 |
| 20260507105837 | 11 | 321 | 0.0 | 8.0 | 0.00 | 0.48 | 0.00 | 60 | 1012.7 |
| 20260507104804 | 11 | 335 | 1.6 | 8.0 | 0.00 | 0.48 | 0.00 | 60 | 1012.6 |
| 20260507103814 | 11 | 325 | 1.6 | 6.4 | 0.00 | 0.48 | 0.00 | 62 | 1012.4 |
| 20260507101648 | 11 | 331 | 1.6 | 12.9 | 0.00 | 0.48 | 0.00 | 63 | 1012.1 |
| 20260507095515 | 11 | 319 | 4.8 | 12.9 | 0.00 | 0.48 | 0.00 | 63 | 1011.8 |
| 20260507093404 | 11 | 339 | 1.6 | 6.4 | 0.00 | 0.48 | 0.00 | 65 | 1011.6 |
| 20260507092334 | 12 | 333 | 1.6 | 16.1 | 0.00 | 0.48 | 0.00 | 68 | 1011.6 |
| 20260507090216 | 12 | 310 | 4.8 | 11.3 | 0.00 | 0.48 | 0.00 | 71 | 1011.7 |
| 20260507085206 | 12 | 317 | 4.8 | 11.3 | 0.00 | 0.48 | 0.00 | 72 | 1011.7 |
| 20260507084135 | 12 | 337 | 3.2 | 8.0 | 0.00 | 0.48 | 0.00 | 75 | 1011.6 |
| 20260507083113 | 12 | 323 | 4.8 | 8.0 | 0.00 | 0.48 | 0.00 | 77 | 1011.6 |
| 20260507082040 | 12 | 335 | 3.2 | 8.0 | 0.00 | 0.48 | 0.00 | 78 | 1011.5 |
| 20260507081104 | 12 | 333 | 3.2 | 6.4 | 0.00 | 0.48 | 0.00 | 79 | 1011.3 |
| 20260507080052 | 12 | 313 | 3.2 | 6.4 | 0.00 | 0.48 | 0.00 | 79 | 1011.2 |
| 20260507075023 | 12 | 336 | 1.6 | 6.4 | 0.00 | 0.48 | 0.00 | 79 | 1011.0 |
| 20260507073953 | 12 | 321 | 0.0 | 8.0 | 0.00 | 0.48 | 0.00 | 79 | 1010.9 |
| 20260507072927 | 12 | 329 | 0.0 | 8.0 | 0.00 | 0.48 | 0.00 | 79 | 1011.0 |
| 20260507071932 | 12 | 338 | 1.6 | 4.8 | 0.00 | 0.48 | 0.00 | 78 | 1010.8 |
| 20260507065724 | 12 | 355 | 3.2 | 9.7 | 0.00 | 0.48 | 0.00 | 78 | 1010.8 |
| 20260507064656 | 12 | 315 | 1.6 | 11.3 | 0.00 | 0.48 | 0.00 | 78 | 1011.0 |
| 20260507063631 | 12 | 333 | 4.8 | 12.9 | 0.00 | 0.48 | 0.00 | 77 | 1011.3 |
| 20260507061510 | 12 | 321 | 1.6 | 9.7 | 0.00 | 0.48 | 0.00 | 78 | 1011.5 |
| 20260507060529 | 13 | 316 | 3.2 | 8.0 | 0.00 | 0.48 | 0.00 | 77 | 1011.3 |
| 20260507055509 | 13 | 348 | 3.2 | 9.7 | 0.00 | 0.48 | 0.00 | 77 | 1011.3 |
| 20260507054444 | 13 | 331 | 1.6 | 9.7 | 0.00 | 0.48 | 0.00 | 78 | 1011.2 |
| 20260507053502 | 13 | 336 | 0.0 | 3.2 | 0.00 | 0.48 | 0.00 | 81 | 1011.2 |
| 20260507052428 | 13 | 344 | 0.0 | 4.8 | 0.00 | 0.48 | 0.00 | 81 | 1011.0 |
| 20260507051404 | 13 | 324 | 1.6 | 6.4 | 0.00 | 0.48 | 0.00 | 81 | 1011.3 |
| 20260507050333 | 13 | 341 | 0.0 | 8.0 | 0.00 | 0.48 | 0.00 | 82 | 1011.0 |
| 20260507045313 | 13 | 346 | 1.6 | 4.8 | 0.00 | 0.48 | 0.00 | 84 | 1011.2 |
| 20260507044258 | 13 | 336 | 0.0 | 3.2 | 0.00 | 0.48 | 0.00 | 85 | 1011.2 |
| 20260507043236 | 13 | 116 | 0.0 | 3.2 | 0.00 | 0.48 | 0.00 | 85 | 1010.5 |
| 20260507035930 | 13 | 13 | 0.0 | 8.0 | 0.00 | 0.48 | 0.51 | 84 | 1010.7 |
| 20260507034945 | 13 | 346 | 1.6 | 9.7 | 0.00 | 0.48 | 0.51 | 83 | 1010.7 |
| 20260507032829 | 14 | 327 | 4.8 | 14.5 | 0.00 | 0.48 | 0.51 | 82 | 1010.7 |
| 20260507031845 | 14 | 350 | 4.8 | 11.3 | 0.00 | 0.48 | 0.51 | 81 | 1010.6 |
| 20260507030827 | 14 | 325 | 4.8 | 14.5 | 0.00 | 0.48 | 0.51 | 82 | 1010.7 |
| 20260507025833 | 15 | 302 | 3.2 | 14.5 | 0.00 | 0.48 | 0.51 | 82 | 1010.6 |
| 20260507024856 | 15 | 306 | 0.0 | 8.0 | 0.00 | 0.48 | 0.51 | 82 | 1010.3 |
| 20260507023903 | 15 | 339 | 0.0 | 11.3 | 0.00 | 0.48 | 0.51 | 82 | 1010.4 |
| 20260507022928 | 15 | 13 | 0.0 | 11.3 | 0.00 | 0.48 | 0.51 | 82 | 1010.4 |
| 20260507021938 | 15 | 47 | 0.0 | 6.4 | 0.00 | 0.48 | 0.51 | 83 | 1010.0 |
| 20260507015829 | 15 | 46 | 0.0 | 3.2 | 0.00 | 0.48 | 0.51 | 84 | 1009.9 |
| 20260507013621 | 15 | 315 | 0.0 | 0.0 | 0.00 | 0.48 | 0.51 | 86 | 1010.0 |
| 20260507012628 | 15 | 11 | 0.0 | 1.6 | 0.00 | 0.48 | 0.51 | 85 | 1009.6 |
| 20260507010435 | 16 | 341 | 6.4 | 16.1 | 0.00 | 0.48 | 0.51 | 86 | 1009.7 |
| 20260507005459 | 16 | 304 | 6.4 | 11.3 | 0.00 | 0.48 | 0.51 | 87 | 1010.1 |
| 20260507004500 | 16 | 337 | 4.8 | 16.1 | 0.00 | 0.48 | 0.51 | 86 | 1009.8 |
| 20260507003430 | 17 | 309 | 6.4 | 16.1 | 0.00 | 0.48 | 0.51 | 84 | 1009.7 |
| 20260507002434 | 17 | 311 | 9.7 | 14.5 | 0.00 | 0.48 | 0.51 | 84 | 1009.7 |
| 20260507001425 | 17 | 314 | 6.4 | 14.5 | 0.00 | 0.48 | 0.51 | 86 | 1009.6 |
| 20260507000423 | 18 | 329 | 4.8 | 14.5 | 0.00 | 0.48 | 0.51 | 86 | 1009.3 |
| 20260506235442 | 18 | 332 | 6.4 | 14.5 | 0.00 | 0.48 | 0.51 | 85 | 1009.1 |
| 20260506233318 | 18 | 303 | 4.8 | 16.1 | 0.00 | 0.48 | 0.51 | 85 | 1008.8 |
| 20260506232258 | 18 | 313 | 6.4 | 14.5 | 0.00 | 0.48 | 0.51 | 85 | 1008.1 |
| 20260506231244 | 18 | 327 | 4.8 | 14.5 | 0.00 | 0.48 | 0.51 | 86 | 1008.1 |
| 20260506230308 | 19 | 302 | 3.2 | 11.3 | 0.00 | 0.48 | 0.51 | 88 | 1008.1 |